Change the Weather History Date:

Thursday, November 15, 2012

  Actual Average Record
Temperature  
Mean Temperature 41 °F -  
Max Temperature 48 °F 46 °F - ()
Min Temperature 34 °F 35 °F - ()
Degree Days  
Heating Degree Days 24    
Moisture  
Dew Point 38 °F    
Average Humidity 90    
Maximum Humidity 100    
Minimum Humidity 76    
Precipitation  
Precipitation 0.00 in 0.23 in - ()
Sea Level Pressure  
Sea Level Pressure 30.12 in    
Wind  
Wind Speed 2 mph ()    
Max Wind Speed 10 mph    
Max Gust Speed -    
Visibility 8.4 miles    
Events Fog    
T = Trace of Precipitation, MM = Missing Value Source: Averaged Metar Reports

Daily Weather History Graph

Daily Weather History Graph

Search for Another Location

Airport or City:

Trip Planner

Search our weather history database for the weather conditions in past years. The results will help you decide how hot, cold, wet, or windy it might be!

Date:

Astronomy

Nov. 15, 2012 Rise Set
Actual Time 7:23 AM PST 4:30 PM PST
Civil Twilight 6:48 AM PST 5:05 PM PST
Nautical Twilight 6:10 AM PST 5:44 PM PST
Astronomical Twilight 5:32 AM PST 6:21 PM PST
Moon 9:31 AM PST (11/15) 6:21 PM PST (11/15)
Length of Visible Light 10h 16m
Length of Day
9h 06m
Waxing Crescent, 5% of the Moon is Illuminated
Nov 15
Waxing Crescent
Nov 20
First Quarter
Nov 28
Full
Dec 6
Last Quarter
Dec 13
New

Hourly Weather History & Observations

Time (PST) Temp. Windchill Dew Point Humidity Pressure Visibility Wind Dir Wind Speed Gust Speed Precip Events Conditions
12:00 AM 39.2 °F - 37.4 °F 93% 30.32 in 15.0 mi Calm Calm - N/A Fog Shallow Fog
12:54 AM 37.4 °F - - N/A% - 3.0 mi Calm Calm - N/A   Partly Cloudy
1:00 AM 37.4 °F - 35.6 °F 93% 30.30 in 1.0 mi Calm Calm - N/A   Clear
1:06 AM 37.4 °F - - N/A% - 0.5 mi Calm Calm - N/A Fog Fog
1:10 AM 37.4 °F - - N/A% - 0.2 mi Calm Calm - N/A Fog Fog
1:22 AM 37.4 °F - - N/A% - 0.6 mi East 2.3 mph - N/A   Clear
2:00 AM 37.4 °F 34.9 °F 37.4 °F 100% 30.29 in 0.6 mi SE 3.5 mph - N/A   Clear
2:14 AM 35.6 °F 32.8 °F - N/A% - 0.4 mi SE 3.5 mph - N/A Fog Fog
3:00 AM 35.6 °F 32.8 °F 35.6 °F 100% 30.28 in 0.4 mi East 3.5 mph - N/A Fog Fog
3:34 AM 35.6 °F 31.7 °F - N/A% - 0.5 mi East 4.6 mph - N/A Fog Fog
4:00 AM 36 °F - 35 °F 97% 30.26 in 0 mi East 2.3 mph - - Fog Partial Fog
4:00 AM 35.6 °F - 35.6 °F 100% 30.26 in 0.5 mi East 2.3 mph - N/A Fog Fog
4:43 AM 35.6 °F - - N/A% - 1.2 mi Calm Calm - N/A   Mostly Cloudy
5:00 AM 35.6 °F - 35.6 °F 100% 30.25 in 8.0 mi Calm Calm - N/A Fog Shallow Fog
6:00 AM 35.6 °F - 33.8 °F 93% 30.22 in 12.0 mi Calm Calm - N/A Fog Shallow Fog
7:00 AM 35.6 °F - 35.6 °F 100% 30.22 in 15.0 mi Calm Calm - N/A Fog Shallow Fog
8:00 AM 33.8 °F 28.6 °F 33.8 °F 100% 30.19 in 15.0 mi ESE 5.8 mph - N/A   Partly Cloudy
9:00 AM 39.2 °F - 37.4 °F 93% 30.19 in 20.0 mi Calm Calm - N/A   Partly Cloudy
10:00 AM 42 °F - 39 °F 87% 30.16 in 28 mi East 4.6 mph - -   Partly Cloudy
10:00 AM 42.8 °F 40.1 °F 39.2 °F 87% 30.16 in 30.0 mi East 4.6 mph - N/A   Partly Cloudy
11:00 AM 46.4 °F - 39.2 °F 76% 30.12 in 30.0 mi Calm Calm - N/A   Partly Cloudy
12:00 PM 46.4 °F 42.4 °F 41.0 °F 81% 30.09 in 30.0 mi WNW 8.1 mph - N/A   Partly Cloudy
1:00 PM 46.4 °F 41.9 °F 41.0 °F 81% 30.08 in 30.0 mi WNW 9.2 mph - N/A   Partly Cloudy
2:00 PM 46.4 °F 41.9 °F 41.0 °F 81% 30.05 in 30.0 mi West 9.2 mph - N/A   Partly Cloudy
3:00 PM 46.4 °F 41.5 °F 41.0 °F 81% 30.04 in 30.0 mi WNW 10.4 mph - N/A   Partly Cloudy
4:00 PM 44 °F - 40 °F 81% 30.02 in 28 mi West 8.1 mph - -   Scattered Clouds
4:00 PM 44.6 °F 39.7 °F 41.0 °F 87% 30.02 in 30.0 mi West 9.2 mph - N/A   Partly Cloudy
5:00 PM 42.8 °F 37.0 °F 37.4 °F 81% 30.00 in 30.0 mi WNW 10.4 mph - N/A   Partly Cloudy
6:00 PM 42.8 °F 38.0 °F 39.2 °F 87% 29.99 in 30.0 mi WNW 8.1 mph - N/A   Overcast
7:00 PM 42.8 °F 40.1 °F 39.2 °F 87% 29.97 in 30.0 mi North 4.6 mph - N/A   Mostly Cloudy
8:00 PM 42.8 °F - 37.4 °F 81% 29.97 in 20.0 mi Calm Calm - N/A   Mostly Cloudy
9:00 PM 41.0 °F - 39.2 °F 93% 29.98 in 20.0 mi Calm Calm - N/A   Mostly Cloudy
10:00 PM 41 °F - 38 °F 86% 29.97 in 19 mi East 4.6 mph - -   Scattered Clouds
10:00 PM 41.0 °F 38.0 °F 39.2 °F 93% 29.97 in 20.0 mi East 4.6 mph - N/A   Mostly Cloudy
11:00 PM 39.2 °F 35.9 °F 37.4 °F 93% 29.96 in 20.0 mi East 4.6 mph - N/A   Mostly Cloudy